{"data":{"norad_id":52695,"intl_designator":"2022-053AR","name":"STARLINK-4041","alt_names":[],"object_type":"PAYLOAD","status":"ACTIVE","operator":null,"country":"US","launch_date":"2022-05-18","launch_site_code":"AFETR","launch_vehicle":null,"mission":null,"orbit_class":"UNKNOWN","rcs_meters":null,"size_class":null,"mass_kg":null,"dimensions":null,"purposes":["comms"],"wikipedia_slug":null,"has_3d_model":false,"image_url":null,"decayed_at":null,"tle_current":{"epoch":"2026-05-24T19:11:30.854688Z","epoch_age_seconds":95541,"freshness":"FRESH","line1":"1 52695U 22053AR  26144.79966267 -.00000030  00000+0  16190-4 0  9992","line2":"2 52695  53.2148 167.2441 0001323  86.2392 273.8751 15.08840066222586","mean_motion":15.08840066,"eccentricity":0.0001323,"inclination_deg":53.2148,"raan_deg":167.2441,"arg_perigee_deg":86.2392,"mean_anomaly_deg":273.8751,"bstar":1.619e-5,"rev_number":22258,"period_min":95.437550503116,"perigee_km":538.82795167974,"apogee_km":540.65842277728,"semimajor_km":6917.8801872285,"source":"CELESTRAK","updated_at":"2026-05-25T13:38:17.237275Z"}}}